Location: *
(43.9905°S, 176.4941°W)
Time: 07:07:28
(UTC+00:00)

Meteor 1-16 Rocket - Pass Details

Date: 08 December 2019
Orbit: 790 x 907 km, 81.2° (Epoch: 17 January)

Event Time Altitude Azimuth Distance (km) Brightness Sun altitude
Exits shadow 11:10:06 52° 11° (N) 1,076 4.3 -23.0°
Maximum altitude 11:11:31 77° 83° (E) 899 4.2 -23.0°
Drops below altitude 10° 11:17:11 10° 167° (SSE) 2,493 7.6 -23.1°
Sets 11:19:35 0° 168° (SSE) 3,417 8.6 -23.2°
